[[{"header":{"parameterUnit":"m.s-1","parameterCategory":1,"la1":30.2991,"la2":30.254,"lo1":-89.0895,"lo2":-89.0444,"dy":0.0017,"dx":0.0017,"nx":28,"ny":28,"refTime":"2025-04-03T03:00:00:Z","depth":0,"parameterNumber":2,"parameterNumberName":"U-component_of_WINDS"},"data":[0,0,0,0,0,0,0,0,0,0,0,0,0,0,0,0,0,0,0,0,0,0,0,0,0,0,0,0,0,0,0,0,0,0,0,0,0,0,0,0,0,0,0,0,0,0,0,0,0,0,0,0,0,0,0,0,0,0,-5.177,-5.1771,0,-5.1892,-5.1894,-5.1895,-5.1892,-5.189,-5.1889,-5.1887,-5.2012,-5.2017,-5.2021,0,0,0,0,0,0,0,0,0,0,0,0,0,-5.1532,-5.1536,-5.1769,-5.1771,-5.1772,-5.1892,-5.1894,-5.1896,-5.1892,-5.189,-5.1888,-5.1886,-5.201,-5.2016,-5.2022,0,0,0,0,0,0,0,0,0,0,0,0,0,-5.1643,-5.1538,-5.1769,-5.1785,-5.1788,-5.1892,-5.1894,-5.1896,-5.1893,-5.189,-5.1888,-5.1885,-5.2008,-5.2015,-5.2023,-5.2118,0,0,-5.2045,-5.2048,0,0,0,0,0,0,0,0,-5.1636,-5.1652,-5.1781,-5.1784,-5.1788,-5.1874,-5.1856,-5.197,-5.1893,-5.1853,-5.1887,-5.1884,-5.1968,-5.1979,-5.2007,-5.2124,-5.2129,-5.2046,-5.205,-5.2053,-5.2055,0,0,0,0,0,0,0,-5.1629,-5.1646,-5.1818,-5.1783,-5.1787,-5.1786,-5.1799,-5.1878,-5.1923,-5.1856,-5.1856,-5.1871,-5.1969,-5.2,-5.201,-5.2131,-5.2046,-5.2052,-5.2057,-5.2059,-5.2333,-5.2335,0,0,0,0,0,0,-5.1618,-5.164,-5.1814,-5.1822,-5.1704,-5.1793,-5.1807,-5.1849,-5.1922,-5.1931,-5.1873,-5.187,-5.1989,-5.2001,-5.2014,-5.213,-5.2053,-5.206,-5.2064,-5.233,-5.2333,-5.2336,0,0,0,0,0,0,-5.1613,-5.1633,-5.1809,-5.1731,-5.1753,-5.18,-5.1846,-5.1853,-5.1883,-5.1935,-5.1943,-5.1896,-5.1987,-5.2004,-5.2092,-5.2134,-5.2063,-5.207,-5.2326,-5.2331,-5.2335,-5.2363,0,0,0,0,0,0,-5.1606,-5.1632,-5.1668,-5.1732,-5.1757,-5.1885,-5.1849,-5.1857,-5.1896,-5.1894,-5.1959,-5.1967,-5.1987,-5.2082,-5.21,-5.2143,-5.2076,-5.2323,-5.2328,-5.2334,-5.2358,-5.2368,-5.2376,0,0,0,0,0,-5.1597,-5.1671,-5.167,-5.1691,-5.1804,-5.1888,-5.1902,-5.1924,-5.19,-5.1937,-5.197,-5.1965,-5.2128,-5.2091,-5.2111,-5.2157,-5.232,-5.2327,-5.2333,-5.2354,-5.2366,-5.2375,0,0,0,0,0,0,-5.161,-5.1679,-5.1679,-5.1776,-5.1826,-5.1887,-5.1934,-5.1935,-5.1993,-5.1988,-5.2012,-5.2027,-5.2115,-5.2146,-5.2103,-5.2254,-5.2221,-5.2232,-5.223,-5.2241,-5.225,-5.2239,-5.2082,0,0,0,0,0,-5.1625,-5.1687,-5.1744,-5.1823,-5.1849,-5.1887,-5.1924,-5.1937,-5.199,-5.2011,-5.205,-5.2102,-5.2164,-5.2205,-5.2266,-5.2364,-5.2377,-5.2406,-5.2415,-5.2421,-5.243,-5.2483,-5.2496,-5.2358,-5.2358,-5.2357,0,0,-5.1654,-5.17,-5.1737,-5.1827,-5.1867,-5.1931,-5.1905,-5.1973,-5.202,-5.2021,-5.2106,-5.2138,-5.2197,-5.229,-5.2334,-5.2318,-5.2472,-5.243,-5.2435,-5.2439,-5.2491,-5.2504,-5.2516,-5.2362,-5.2361,-5.2361,0,0,-5.174,-5.1781,-5.1852,-5.1893,-5.1955,-5.198,-5.1997,-5.2059,-5.208,-5.2166,-5.2168,-5.2225,-5.2333,-5.2374,-5.241,-5.2514,-5.2511,-5.2533,-5.2577,-5.2629,-5.264,-5.2649,-5.2685,-5.2698,-5.2542,-5.2542,-5.2542,0,-5.1768,-5.1864,-5.1888,-5.1956,-5.1996,-5.2,-5.2072,-5.2111,-5.2189,-5.2216,-5.2198,-5.2334,-5.2374,-5.2477,-5.2502,-5.2532,-5.2551,-5.2524,-5.2636,-5.2646,-5.2656,-5.269,-5.2703,-5.2544,-5.2544,-5.2543,-5.2543,0,-5.1896,-5.1963,-5.2012,-5.2088,-5.2133,-5.2203,-5.2237,-5.228,-5.2289,-5.2317,-5.2405,-5.2454,-5.2524,-5.255,-5.256,-5.2655,-5.2643,-5.2631,-5.2598,-5.2671,-5.2703,-5.2717,-5.2547,-5.2546,-5.2545,-5.2545,0,0,-5.1991,-5.208,-5.2097,-5.2132,-5.2201,-5.2253,-5.2324,-5.2393,-5.2429,-5.2484,-5.2542,-5.2635,-5.2624,-5.2664,-5.2679,-5.2725,-5.2802,-5.2707,-5.2708,-5.2721,-5.2909,-5.2916,-5.2931,-5.2802,-5.2805,-5.2807,-5.2904,0,-5.2082,-5.2207,-5.2231,-5.2339,-5.24,-5.2407,-5.2468,-5.2517,-5.2545,-5.2602,-5.2633,-5.2697,-5.2679,-5.2703,-5.2749,-5.2783,-5.284,-5.2777,-5.2856,-5.2859,-5.2839,-5.2949,-5.2956,-5.3045,-5.2917,-5.2919,-5.2921,0,-5.2205,-5.2263,-5.2377,-5.2439,-5.2466,-5.252,-5.2586,-5.264,-5.2696,-5.2713,-5.2759,-5.2769,-5.2842,-5.2808,-5.2909,-5.2866,-5.29,-5.2922,-5.2926,-5.2932,-5.2892,-5.2956,-5.3074,-5.3087,-5.2941,-5.294,-5.2938,0,-5.2261,-5.2368,-5.245,-5.2479,-5.2553,-5.2591,-5.2624,-5.2678,-5.2719,-5.2776,-5.2803,-5.2868,-5.2904,-5.2955,-5.2982,-5.2955,-5.3081,-5.3049,-5.3096,-5.3095,-5.312,-5.3118,-5.3243,-5.3146,-5.3146,-5.3146,-5.3145,0,-5.2359,-5.2428,-5.2475,-5.2526,-5.2604,-5.2631,-5.2707,-5.274,-5.2788,-5.2844,-5.2855,-5.2908,-5.2942,-5.3,-5.3022,-5.3102,-5.3118,-5.3134,-5.3138,-5.3132,-5.3129,-5.3152,-5.3146,-5.3149,-5.3149,-5.3148,-5.3147,0,-5.2433,-5.2468,-5.2557,-5.2621,-5.2638,-5.2693,-5.2747,-5.2796,-5.2825,-5.2897,-5.2915,-5.2961,-5.3029,-5.3063,-5.3148,-5.3163,-5.3253,-5.3254,-5.3233,-5.3235,-5.3279,-5.3274,-5.3422,-5.3443,-5.3334,-5.3335,-5.3336,0,-5.2492,-5.2546,-5.2615,-5.2654,-5.2688,-5.275,-5.2792,-5.2821,-5.2864,-5.2933,-5.2974,-5.3043,-5.31,-5.3209,-5.325,-5.3315,-5.3317,-5.3365,-5.3327,-5.3319,-5.3316,-5.3312,-5.3317,-5.3371,-5.3372,-5.3373,-5.3374,0,-5.2594,-5.2608,-5.2668,-5.2733,-5.2783,-5.2836,-5.2888,-5.2919,-5.2957,-5.3005,-5.3075,-5.312,-5.3207,-5.3276,-5.3344,-5.3378,-5.3382,-5.3386,-5.34,-5.3392,-5.3377,-5.3384,-5.325,-5.3381,-5.3381,-5.338,-5.338,-5.3379,-5.2661,-5.2709,-5.2765,-5.2831,-5.2873,-5.2922,-5.2971,-5.3007,-5.3066,-5.314,-5.3154,-5.3229,-5.3285,-5.3377,-5.3414,-5.3472,-5.3462,-5.3482,-5.3487,-5.3491,-5.3493,-5.337,-5.3485,-5.3485,-5.3485,-5.3485,-5.3485,0,-5.2761,-5.2798,-5.2859,-5.2931,-5.2983,-5.2984,-5.3042,-5.3085,-5.3151,-5.3203,-5.3259,-5.334,-5.3407,-5.3453,-5.3521,-5.356,-5.3563,-5.3576,-5.3572,-5.358,-5.3499,-5.3479,-5.3572,-5.3572,-5.3572,-5.3572,-5.3572,-5.3572,-5.2819,-5.29,-5.2921,-5.3023,-5.306,-5.3133,-5.3166,-5.3211,-5.3252,-5.3342,-5.3398,-5.3428,-5.3478,-5.355,-5.3612,-5.3624,-5.3647,-5.366,-5.3672,-5.3595,-5.3586,-5.3577,-5.3558,-5.3666,-5.3666,-5.3747,-5.3748,-5.3749]},{"header":{"parameterUnit":"m.s-1","parameterCategory":1,"la1":30.2991,"la2":30.254,"lo1":-89.0895,"lo2":-89.0444,"dy":0.0017,"dx":0.0017,"nx":28,"ny":28,"refTime":"2025-04-03T03:00:00:Z","depth":0,"parameterNumber":3,"parameterNumberName":"V-component_of_WINDS"},"data":[0,0,0,0,0,0,0,0,0,0,0,0,0,0,0,0,0,0,0,0,0,0,0,0,0,0,0,0,0,0,0,0,0,0,0,0,0,0,0,0,0,0,0,0,0,0,0,0,0,0,0,0,0,0,0,0,0,0,4.399,4.3991,0,4.4131,4.4132,4.4134,4.4151,4.415,4.4149,4.4147,4.429,4.4295,4.43,0,0,0,0,0,0,0,0,0,0,0,0,0,4.3736,4.3741,4.399,4.3991,4.3993,4.413,4.4132,4.4134,4.4152,4.415,4.4148,4.4147,4.4288,4.4294,4.4301,0,0,0,0,0,0,0,0,0,0,0,0,0,4.3859,4.3742,4.3989,4.4018,4.4022,4.413,4.4132,4.4135,4.4152,4.415,4.4148,4.4146,4.4287,4.4294,4.4301,4.4389,0,0,4.4325,4.4328,0,0,0,0,0,0,0,0,4.3852,4.3868,4.4012,4.4017,4.4021,4.4121,4.4095,4.422,4.4152,4.4103,4.4147,4.4145,4.4236,4.4247,4.4278,4.4396,4.4402,4.4325,4.433,4.4333,4.4335,0,0,0,0,0,0,0,4.3843,4.3862,4.4045,4.4014,4.402,4.4025,4.404,4.4119,4.4179,4.4107,4.4108,4.4125,4.4238,4.4271,4.4282,4.4404,4.4325,4.4332,4.4337,4.434,4.4605,4.4607,0,0,0,0,0,0,4.3829,4.3855,4.4041,4.405,4.393,4.4031,4.4048,4.4091,4.4178,4.4189,4.4127,4.4125,4.4259,4.4273,4.4287,4.4398,4.4333,4.434,4.4345,4.4603,4.4606,4.4608,0,0,0,0,0,0,4.3824,4.3846,4.4035,4.3953,4.3977,4.4037,4.4086,4.4095,4.4128,4.4193,4.4204,4.415,4.4258,4.4276,4.4365,4.4403,4.4344,4.4351,4.46,4.4603,4.4607,4.4619,0,0,0,0,0,0,4.3816,4.3844,4.3877,4.3953,4.3982,4.4111,4.4088,4.4099,4.4142,4.4141,4.4217,4.4228,4.4257,4.4353,4.4372,4.4412,4.4357,4.4596,4.4601,4.4606,4.4616,4.4623,4.4629,0,0,0,0,0,4.3807,4.3874,4.3879,4.3901,4.4025,4.4113,4.4129,4.4162,4.4144,4.4179,4.4221,4.4225,4.4396,4.4362,4.4384,4.4427,4.4594,4.46,4.4605,4.4613,4.4622,4.4629,0,0,0,0,0,0,4.38,4.3884,4.3891,4.3984,4.4041,4.4115,4.416,4.417,4.4232,4.4229,4.4267,4.4284,4.4372,4.4408,4.4369,4.4518,4.4493,4.4503,4.4492,4.4501,4.4507,4.4497,4.4363,0,0,0,0,0,4.3809,4.3873,4.3944,4.4019,4.4048,4.4099,4.4139,4.416,4.422,4.4244,4.4292,4.4351,4.4418,4.4461,4.4526,4.4621,4.4639,4.4661,4.4668,4.4673,4.4682,4.4738,4.475,4.4627,4.4627,4.4627,0,0,4.3829,4.3883,4.3921,4.4019,4.4066,4.4133,4.4119,4.4189,4.4239,4.4254,4.4342,4.438,4.4448,4.4541,4.4584,4.4573,4.472,4.468,4.4684,4.469,4.4745,4.4757,4.4767,4.463,4.463,4.4629,0,0,4.3899,4.3946,4.4015,4.4063,4.4135,4.4169,4.4186,4.4259,4.4285,4.4374,4.4388,4.4448,4.4561,4.461,4.465,4.4742,4.4749,4.4762,4.4797,4.4851,4.4861,4.487,4.4905,4.4917,4.477,4.477,4.477,0,4.3914,4.4015,4.405,4.4121,4.4165,4.4183,4.4254,4.4299,4.4387,4.4418,4.4404,4.455,4.4596,4.4703,4.4726,4.4756,4.4778,4.4754,4.4857,4.4866,4.4875,4.4909,4.4922,4.4771,4.4771,4.4771,4.4771,0,4.4032,4.4102,4.4149,4.4237,4.4286,4.4356,4.4402,4.4448,4.4465,4.4501,4.4592,4.4649,4.4728,4.4754,4.4771,4.4864,4.4856,4.4849,4.4825,4.4887,4.492,4.4933,4.4773,4.4773,4.4772,4.4772,0,0,4.4101,4.4208,4.4225,4.4266,4.4348,4.4402,4.4475,4.4552,4.4592,4.4653,4.4716,4.4813,4.4809,4.4854,4.4876,4.4924,4.4996,4.4912,4.4914,4.4928,4.5106,4.5111,4.5126,4.5001,4.5004,4.5006,4.5101,0,4.4182,4.4312,4.4347,4.4458,4.4524,4.4543,4.4607,4.4664,4.47,4.4762,4.4801,4.4871,4.4858,4.4886,4.4934,4.4977,4.5033,4.4971,4.5061,4.5064,4.5046,4.5143,4.5148,4.5235,4.5114,4.5116,4.5117,0,4.4294,4.436,4.4478,4.4553,4.4583,4.4639,4.4715,4.4773,4.4839,4.4862,4.4914,4.4933,4.501,4.4981,4.509,4.5047,4.5086,4.5113,4.5118,4.5129,4.5096,4.5158,4.5263,4.5277,4.5137,4.5136,4.5134,0,4.4336,4.4453,4.454,4.4574,4.4664,4.4703,4.4743,4.4807,4.4852,4.4918,4.4948,4.5022,4.5062,4.5119,4.5158,4.5133,4.5264,4.5238,4.5287,4.5286,4.5314,4.5312,4.5429,4.5336,4.5336,4.5336,4.5336,0,4.4424,4.4496,4.456,4.4613,4.4695,4.4735,4.4815,4.4854,4.4912,4.4974,4.4994,4.5052,4.5099,4.5164,4.5194,4.5281,4.5298,4.532,4.5328,4.532,4.5317,4.5347,4.5343,4.5339,4.5339,4.5338,4.5337,0,4.4485,4.453,4.4626,4.4704,4.4726,4.4783,4.485,4.4903,4.494,4.5019,4.504,4.5098,4.5175,4.522,4.5316,4.5337,4.5434,4.5438,4.5413,4.5416,4.5464,4.5459,4.5605,4.5628,4.5517,4.5518,4.5519,0,4.4539,4.4595,4.468,4.4724,4.4764,4.4834,4.4881,4.4922,4.4971,4.5052,4.5096,4.5175,4.524,4.5363,4.5415,4.549,4.5496,4.5542,4.5508,4.5499,4.55,4.5497,4.5504,4.5549,4.555,4.555,4.5551,0,4.4632,4.4652,4.472,4.4796,4.4852,4.4914,4.4975,4.501,4.5061,4.5115,4.5195,4.5246,4.5347,4.5426,4.5505,4.5546,4.5559,4.5562,4.5577,4.5571,4.5555,4.5567,4.5431,4.5558,4.5558,4.5557,4.5557,4.5556,4.4693,4.4745,4.4814,4.4889,4.494,4.4997,4.5052,4.5097,4.5165,4.5251,4.527,4.5356,4.5423,4.5531,4.5575,4.5642,4.5634,4.5656,4.5662,4.5667,4.5671,4.5542,4.5656,4.5656,4.5656,4.5656,4.5656,0,4.4789,4.4834,4.4903,4.499,4.5049,4.5056,4.5125,4.5175,4.525,4.5311,4.5376,4.547,4.5547,4.5605,4.5684,4.5728,4.5736,4.5747,4.5746,4.5755,4.5672,4.5652,4.574,4.574,4.574,4.574,4.574,4.574,4.4846,4.4935,4.4964,4.508,4.5125,4.5209,4.5249,4.5303,4.5352,4.5456,4.5521,4.5559,4.562,4.5704,4.5776,4.5791,4.5821,4.5832,4.5849,4.577,4.5761,4.5752,4.5734,4.5838,4.5838,4.5927,4.5928,4.5928]}]]